This is the latest recevied weather packets stored in our database for station/object W3EJE-13. If no packets are shown the sender has not sent any weather packets the latest 10 day(s).
| Time | Temp. | Humidity | Pressure | Rain* | Wind** | Luminosity | Snow |
|---|---|---|---|---|---|---|---|
| 1777915163 | 18.89° C | 57% | 1012.7 hPa | 0 mm | - | 232 W/m² | - |
| 1777914860 | 18.33° C | 57% | 1012.6 hPa | 0 mm | - | 874 W/m² | - |
| 1777914557 | 18.33° C | 57% | 1012.5 hPa | 0 mm | - | 386 W/m² | - |
| 1777914253 | 19.44° C | 55% | 1012.8 hPa | 0 mm | - | 278 W/m² | - |
| 1777913950 | 18.89° C | 55% | 1013 hPa | 0 mm | - | 753 W/m² | - |
| 1777913646 | 18.89° C | 58% | 1012.8 hPa | 0 mm | - | 199 W/m² | - |
| 1777913343 | 17.78° C | 57% | 1013.3 hPa | 0 mm | - | 842 W/m² | - |
| 1777913040 | 18.33° C | 59% | 1013.2 hPa | 0 mm | - | 178 W/m² | - |
| 1777912735 | 18.33° C | 55% | 1013.1 hPa | 0 mm | - | 745 W/m² | - |
| 1777912432 | 18.33° C | 54% | 1013.3 hPa | 0 mm | - | 757 W/m² | - |
| 1777912128 | 17.78° C | 57% | 1013.3 hPa | 0 mm | - | 800 W/m² | - |
| 1777911824 | 17.78° C | 55% | 1013.3 hPa | 0 mm | - | 577 W/m² | - |
| 1777911521 | 17.78° C | 57% | 1013.3 hPa | 0 mm | - | 285 W/m² | - |
| 1777911218 | 17.22° C | 56% | 1013.3 hPa | 0 mm | - | 601 W/m² | - |
| 1777910915 | 17.78° C | 58% | 1013.4 hPa | 0 mm | - | 278 W/m² | - |
| 1777910612 | 17.78° C | 58% | 1013.4 hPa | 0 mm | - | 731 W/m² | - |
| 1777910309 | 17.78° C | 58% | 1013.6 hPa | 0 mm | - | 727 W/m² | - |
| 1777910006 | 17.22° C | 57% | 1013.7 hPa | 0 mm | - | 724 W/m² | - |
| 1777909703 | 17.22° C | 55% | 1013.7 hPa | 0 mm | - | 334 W/m² | - |
| 1777909400 | 16.67° C | 57% | 1013.7 hPa | 0 mm | - | 314 W/m² | - |
| 1777909098 | 16.11° C | 58% | 1013.7 hPa | 0 mm | - | 831 W/m² | - |
| 1777908795 | 16.11° C | 58% | 1013.9 hPa | 0 mm | - | 284 W/m² | - |
| 1777908492 | 16.11° C | 56% | 1013.8 hPa | 0 mm | - | 836 W/m² | - |
| 1777908189 | 16.11° C | 57% | 1013.8 hPa | 0 mm | - | 258 W/m² | - |
| 1777907885 | 16.67° C | 57% | 1013.9 hPa | 0 mm | - | 510 W/m² | - |
* Rain latest hour (hover to see other rain measurements)
** Current wind speed in m/s (hover to see current wind gust speed)